Home   Weather   Hanoi   Past weeks

Flag for Vietnam Past Weather in Hanoi, Vietnam — Yesterday and Last 2 Weeks

Now
77 °F

Fog.


Feels Like: 78 °F
Forecast: 71 / 77 °F
Wind: 5 mph from Northeast

Location: Ha Noi Airport

Current Time: Apr 26, 2017 at 7:25:10 am

Latest Report: Apr 26, 2017 at 6:30 am


Visibility: 2 mi

Pressure: 29.80 "Hg

Humidity: 94%

Dew Point: 75 °F

Location of HanoiLocation

Past Weather in Hanoi — Graph

°F

Hanoi Temperature Yesterday

Maximum temperature yesterday: 84 °F (at 3:00 pm)
Minimum temperature yesterday: 72 °F (at 2:00 am)
Average temperature yesterday: 77 °F

High & Low Weather Summary for the Past Weeks

 TemperatureHumidityPressure
High93 °F (Apr 11, 2:00 pm)100% (Apr 11, 6:00 am)30.09 "Hg (Apr 11, 6:00 am)
Low68 °F (Apr 12, 11:00 am)48% (Apr 13, 12:00 pm)29.56 "Hg (Apr 11, 2:30 pm)
Average77 °F90%29.83 "Hg
* Reported Apr 11 6:00 am — Apr 26 6:30 am, Hanoi, Weather by CustomWeather, © 2017

Note: Actual official high and low records may vary slightly from our data, if they occured in-between our weather recording intervals... More about our weather records

Advertising

Hanoi Weather History for the Previous 24 Hours

Scroll right to see more
 ConditionsComfort  
Time TempWeatherWind HumidityBarometerVisibility
6:30 am
Wed, Apr 26
77 °FFog.5 mph94%29.80 "Hg2 mi
6:00 am75 °FFog.2 mph94%29.80 "Hg2 mi
5:30 am75 °FFog.5 mph94%29.80 "Hg2 mi
5:00 am75 °FFog.3 mph94%29.77 "Hg3 mi
4:30 am75 °FPassing clouds.5 mph94%29.77 "Hg4 mi
4:00 am75 °FFog.5 mph94%29.77 "Hg3 mi
3:30 am75 °FFog.6 mph94%29.77 "Hg3 mi
3:00 am75 °FFog.5 mph94%29.77 "Hg3 mi
2:30 am75 °FPartly cloudy.5 mph94%29.77 "Hg4 mi
2:00 am75 °FPartly cloudy.6 mph94%29.77 "Hg4 mi
1:00 am77 °FPassing clouds.7 mph94%29.80 "Hg4 mi
12:30 am77 °FPassing clouds.6 mph94%29.80 "Hg4 mi
12:00 am77 °FPassing clouds.5 mph94%29.80 "Hg4 mi
11:30 pm
Tue, Apr 25
77 °FPassing clouds.6 mph94%29.80 "Hg5 mi
11:00 pm77 °FPassing clouds.8 mph94%29.83 "Hg6 mi
10:30 pm77 °FPartly cloudy.6 mph94%29.83 "Hg5 mi
9:30 pm79 °FPartly cloudy.6 mph94%29.80 "HgN/A
9:00 pm79 °FPartly cloudy.10 mph94%29.77 "Hg6 mi
8:30 pm79 °FPassing clouds.5 mph94%29.77 "Hg4 mi
8:00 pm79 °FPassing clouds.3 mph94%29.74 "Hg4 mi
7:30 pm79 °FPassing clouds.3 mph94%29.74 "Hg4 mi
6:30 pm81 °FPassing clouds.7 mph94%29.71 "Hg6 mi
6:00 pm81 °FPartly sunny.7 mph94%29.71 "Hg6 mi
5:30 pm82 °FPartly sunny.6 mph84%29.71 "HgN/A
5:00 pm82 °FPartly sunny.6 mph84%29.68 "HgN/A
4:30 pm82 °FPartly sunny.8 mph84%29.68 "HgN/A
4:00 pm82 °FPartly sunny.7 mph79%29.68 "HgN/A
3:30 pm82 °FPartly sunny.6 mph79%29.71 "HgN/A
3:00 pm84 °FPartly sunny.5 mph74%29.71 "HgN/A
2:00 pm82 °FPartly sunny.5 mph79%29.74 "Hg6 mi
1:30 pm82 °FPartly sunny.5 mph79%29.74 "Hg6 mi
12:30 pm81 °FBroken clouds.6 mph84%29.77 "Hg5 mi
12:00 pm81 °FBroken clouds.8 mph89%29.80 "Hg4 mi
11:30 am79 °FBroken clouds.9 mph89%29.80 "Hg4 mi
10:30 am79 °FBroken clouds.8 mph89%29.83 "Hg5 mi
10:00 am77 °FBroken clouds.8 mph94%29.83 "Hg5 mi
9:30 am77 °FBroken clouds.7 mph94%29.83 "Hg4 mi
9:00 am75 °FFog.7 mph94%29.83 "Hg3 mi
8:30 am75 °FFog.8 mph94%29.86 "Hg3 mi
8:00 am75 °FFog.6 mph94%29.83 "Hg3 mi
7:30 am73 °FFog.6 mph100%29.83 "Hg2 mi
7:00 am73 °FFog.6 mph100%29.83 "Hg2 mi
Weather by CustomWeather, © 2017

See weather overviewHow to use our weather pages